sat.trackr.live / text

‹ back to catalog

STARLINK-11628 [DTC]

NORAD 63139 · 2025-043H

PAYLOAD ACTIVE UNKNOWN

§ Identity

Operator
Country
US
Launch date
2025-03-03
Launch site
AFETR
Launch vehicle
Mass (kg)
RCS (m²)

Purposes: comms

External: N2YO · Heavens-Above · Gunter

§ Orbital elements

Epoch: 2026-09-20T01:41:04.049664Z

Period
91.67 min
Inclination
43.0018°
Eccentricity
0.0002223
Mean motion
15.70861326 rev/d
Perigee alt
354.9 km
Apogee alt
357.9 km
Semi-major
6,734.6 km
B*
1.2254e-3
RAAN
159.0082°
Arg perigee
259.3098°
Mean anomaly
100.7520°
Rev number
9,004

§ Raw data

STARLINK-11628 [DTC]1 63139U 25043H   26263.07018576  .00159992  00000+0  12254-2 0  99992 63139  43.0018 159.0082 0002223 259.3098 100.7520 15.70861326 90047

JSON: /api/v1/satellites/63139 · /tle

For live sub-satellite position, see the globe view (requires WebGL).

§ Visibility from observer

Set your observer location to see the next 7 days of passes ≥ 10°. The values pass through the URL so the page stays shareable.

No JS? Fill the form by hand. The geolocation button needs JavaScript.